STARLINK-3636, 51995

Orbit data source: Space-Track

STARLINK-3636, 51995 is a payload satellite owned by SpaceX/Seattle (US) in LEO that was launched on Wed, 09 Mar 2022 UTC via an FALCON 9 launch vehicle from the Air Force Eastern Test Range (AFETR). Payload-class satellites include a variety of spacecraft equipped with specific instruments for various scientific and technological missions. These include communications satellites like Starlink; space stations such as the ISS; scientific satellites like the Hubble; Earth observation satellites from companies like Planet Labs, Umbra, and HawkEye 360; GPS; miniature CubeSats for education and research; and military/defense satellites.

Loading next visibility...
Identifier
51995, 2022-025AR
Orbit
LEO
Country
Flag of USUS
Related business
Manufacturer
SpaceX/Seattle
Mission
Operational Commercial Communications
Bus & Motor
STARLINK, Unknown motor
Mass
297 kg wet, ~275 kg dry
Launch date (UTC)
2022-03-09 (4 years ago)
Launch vehicle
FALCON 9
Launch site
Air Force Eastern Test Range (AFETR)
Object type
Payload
Rocket body
Debris
Shape & HBR
Box + 1 Pan, 10.1 m
Radar Cross Section
13.562 m², Large (>1 m²)

Expand to show TLE details & history
Last TLE update: 15 hours ago

TLE from 15 hours ago
0 STARLINK-3636
1 51995U 22025AR  25346.90155340  .00000156  00000-0  27891-4 0  9990
2 51995  53.2193  48.7291 0001424  86.5290 273.5865 15.08840680207809
Epoch: 2025-12-12T21:38Z
TLE epoch observation values (Epoch: 2025-12-12T21:38:14.213Z)
Latitude
-0.00004°
Longitude
2.33332°
Altitude
540.577 km
Speed
7.593 km/s
True Right ascension
03h 14m 54s
True Declination
0° 00' 00"
Sunlit
Object was in full shadow at epoch
Visualization orbit readout
Latitude
Unknown
Longitude
Unknown
Altitude
Unknown
Speed
Unknown
Apparent Right ascension
Unknown
Apparent Declination
Unknown
Sunlit
N/A
Visualization observer readout
Local Sidereal Time
11:17:32
Azimuth
Unknown
Elevation
Unknown
Doppler factor
Unknown
Orbital elements
Apogee altitude
540.971 km
Perigee altitude
539.001 km
Semi-major axis
6,918.123 km
Eccentricity
0.00014
Inclination
53.2193°
RAAN
48.7291°
Arg. of periapsis
86.529°
True anomaly
273.57021°
Mean anomaly
273.5865°
Eccentric anomaly
273.57836°
Mean motion
3.77191 °/min
Orbital period
95.44 mins
BSTAR
0.000027891
Loading maneuver chart data...
Computing Atmospheric mass density...
Loading historical data...
Loading historical data...
Loading historical data...
Loading historical data...
Loading historical data...
Loading historical data...
Loading historical data...

Documentation

Showing up to 5 results
|